| time (UTC) | temp C | wind direction | speed KPH | gust KPH | rain 1hr cm | rain 24hr cm | rain mn cm | humidity % | barometer mb |
| 20260503214010 | 25 | 67 | 6.4 | 17.7 | 0.00 | 0.41 | 0.30 | 64 | 1016.2 |
| 20260503213514 | 25 | 28 | 8.0 | 16.1 | 0.00 | 0.41 | 0.30 | 62 | 1016.1 |
| 20260503213021 | 25 | 57 | 4.8 | 19.3 | 0.00 | 0.41 | 0.30 | 61 | 1016.2 |
| 20260503212506 | 26 | 72 | 9.7 | 19.3 | 0.00 | 0.41 | 0.30 | 60 | 1016.1 |
| 20260503212005 | 26 | 35 | 8.0 | 16.1 | 0.00 | 0.41 | 0.30 | 63 | 1016.2 |
| 20260503211521 | 26 | 86 | 6.4 | 17.7 | 0.00 | 0.41 | 0.30 | 62 | 1016.2 |
| 20260503211006 | 26 | 89 | 8.0 | 17.7 | 0.00 | 0.41 | 0.30 | 60 | 1016.3 |
| 20260503210514 | 26 | 74 | 3.2 | 17.7 | 0.00 | 0.41 | 0.30 | 61 | 1016.1 |
| 20260503210023 | 26 | 38 | 11.3 | 17.7 | 0.00 | 0.41 | 0.30 | 60 | 1016.3 |
| 20260503205508 | 26 | 40 | 8.0 | 17.7 | 0.00 | 0.43 | 0.30 | 61 | 1016.4 |
| 20260503205008 | 27 | 26 | 6.4 | 17.7 | 0.00 | 0.43 | 0.30 | 58 | 1016.4 |
| 20260503204528 | 27 | 72 | 6.4 | 17.7 | 0.00 | 0.43 | 0.30 | 59 | 1016.3 |
| 20260503204009 | 27 | 22 | 6.4 | 14.5 | 0.00 | 0.46 | 0.30 | 59 | 1016.4 |
| 20260503203509 | 27 | 103 | 8.0 | 16.1 | 0.00 | 0.53 | 0.30 | 59 | 1016.6 |
| 20260503203039 | 27 | 89 | 8.0 | 17.7 | 0.00 | 0.53 | 0.30 | 59 | 1016.6 |
| 20260503202511 | 26 | 117 | 9.7 | 17.7 | 0.00 | 0.53 | 0.30 | 61 | 1016.5 |
| 20260503202010 | 26 | 74 | 4.8 | 16.1 | 0.00 | 0.53 | 0.30 | 64 | 1016.5 |
| 20260503201517 | 26 | 46 | 6.4 | 19.3 | 0.00 | 0.53 | 0.30 | 60 | 1016.6 |
| 20260503201006 | 26 | 44 | 6.4 | 19.3 | 0.00 | 0.53 | 0.30 | 60 | 1016.7 |
| 20260503200507 | 26 | 57 | 4.8 | 16.1 | 0.00 | 0.53 | 0.30 | 61 | 1016.6 |
| 20260503200024 | 26 | 12 | 9.7 | 16.1 | 0.00 | 0.53 | 0.30 | 64 | 1016.8 |
| 20260503195508 | 25 | 56 | 6.4 | 17.7 | 0.00 | 0.53 | 0.30 | 63 | 1016.9 |
| 20260503195009 | 25 | 58 | 6.4 | 17.7 | 0.00 | 0.53 | 0.30 | 63 | 1016.8 |
| 20260503194519 | 25 | 107 | 6.4 | 17.7 | 0.00 | 0.53 | 0.30 | 63 | 1016.9 |
| 20260503194009 | 26 | 45 | 9.7 | 19.3 | 0.00 | 0.53 | 0.30 | 63 | 1016.9 |
| 20260503193511 | 26 | 69 | 9.7 | 24.1 | 0.00 | 0.53 | 0.30 | 63 | 1017.0 |
| 20260503193028 | 26 | 51 | 11.3 | 24.1 | 0.00 | 0.53 | 0.30 | 61 | 1017.2 |
| 20260503192507 | 26 | 31 | 8.0 | 20.9 | 0.00 | 0.53 | 0.30 | 62 | 1017.3 |
| 20260503192010 | 26 | 77 | 8.0 | 20.9 | 0.00 | 0.53 | 0.30 | 63 | 1017.4 |
| 20260503191529 | 26 | 27 | 11.3 | 22.5 | 0.00 | 0.53 | 0.30 | 62 | 1017.3 |
| 20260503191010 | 27 | 76 | 4.8 | 22.5 | 0.00 | 0.53 | 0.30 | 60 | 1017.5 |
| 20260503190515 | 27 | 50 | 6.4 | 19.3 | 0.00 | 0.53 | 0.30 | 62 | 1017.6 |
| 20260503190021 | 26 | 70 | 9.7 | 22.5 | 0.00 | 0.53 | 0.30 | 63 | 1017.6 |
| 20260503185507 | 26 | 71 | 4.8 | 22.5 | 0.00 | 0.53 | 0.30 | 64 | 1017.8 |
| 20260503185011 | 26 | 87 | 8.0 | 20.9 | 0.00 | 0.53 | 0.30 | 65 | 1017.8 |
| 20260503184526 | 26 | 32 | 3.2 | 19.3 | 0.00 | 0.53 | 0.30 | 66 | 1017.9 |
| 20260503184012 | 26 | 9 | 6.4 | 20.9 | 0.00 | 0.53 | 0.30 | 64 | 1017.9 |
| 20260503183511 | 26 | 45 | 11.3 | 20.9 | 0.00 | 0.53 | 0.30 | 61 | 1018.0 |
| 20260503183029 | 26 | 117 | 6.4 | 22.5 | 0.00 | 0.53 | 0.30 | 65 | 1018.1 |
| 20260503182516 | 26 | 29 | 9.7 | 24.1 | 0.00 | 0.53 | 0.30 | 67 | 1018.1 |
| 20260503182012 | 25 | 105 | 12.9 | 24.1 | 0.00 | 0.53 | 0.30 | 67 | 1018.1 |
| 20260503181527 | 25 | 57 | 9.7 | 19.3 | 0.00 | 0.53 | 0.30 | 65 | 1018.1 |
| 20260503181010 | 25 | 62 | 9.7 | 24.1 | 0.00 | 0.53 | 0.30 | 66 | 1018.4 |
| 20260503180510 | 25 | 130 | 9.7 | 24.1 | 0.00 | 0.53 | 0.30 | 64 | 1018.4 |
| 20260503180031 | 25 | 48 | 4.8 | 20.9 | 0.00 | 0.53 | 0.30 | 67 | 1018.5 |
| 20260503175507 | 25 | 42 | 11.3 | 20.9 | 0.00 | 0.53 | 0.30 | 65 | 1018.6 |
| 20260503175007 | 25 | 81 | 8.0 | 22.5 | 0.00 | 0.53 | 0.30 | 64 | 1018.5 |
| 20260503174521 | 25 | 24 | 9.7 | 22.5 | 0.00 | 0.53 | 0.30 | 66 | 1018.7 |
| 20260503174010 | 25 | 24 | 11.3 | 22.5 | 0.00 | 0.53 | 0.30 | 67 | 1018.6 |
| 20260503173040 | 25 | 61 | 4.8 | 22.5 | 0.00 | 0.53 | 0.30 | 68 | 1018.7 |
| 20260503172512 | 24 | 106 | 12.9 | 22.5 | 0.00 | 0.53 | 0.30 | 69 | 1018.8 |
| 20260503172010 | 24 | 30 | 6.4 | 22.5 | 0.00 | 0.53 | 0.30 | 72 | 1018.8 |
| 20260503171535 | 24 | 32 | 11.3 | 22.5 | 0.00 | 0.53 | 0.30 | 68 | 1018.7 |
| 20260503171003 | 24 | 43 | 6.4 | 20.9 | 0.00 | 0.53 | 0.30 | 71 | 1018.7 |
| 20260503170506 | 24 | 34 | 11.3 | 25.7 | 0.00 | 0.53 | 0.30 | 69 | 1018.7 |
| 20260503151007 | 20 | 53 | 9.7 | 17.7 | 0.00 | 0.53 | 0.30 | 81 | 1019.2 |
| 20260503150503 | 20 | 48 | 8.0 | 20.9 | 0.00 | 0.53 | 0.30 | 82 | 1019.4 |
| 20260503131009 | 18 | 21 | 6.4 | 19.3 | 0.00 | 0.53 | 0.30 | 89 | 1017.8 |
| 20260503130505 | 18 | 11 | 9.7 | 19.3 | 0.00 | 0.53 | 0.30 | 89 | 1017.9 |
| 20260503110508 | 17 | 352 | 3.2 | 14.5 | 0.00 | 0.53 | 0.30 | 94 | 1016.6 |
| 20260503090503 | 17 | 352 | 8.0 | 16.1 | 0.10 | 0.53 | 0.30 | 94 | 1015.9 |
| 20260503081518 | 18 | 352 | 4.8 | 14.5 | 0.03 | 0.43 | 0.20 | 93 | 1015.7 |
| 20260503071510 | 18 | 21 | 8.0 | 14.5 | 0.03 | 0.41 | 0.18 | 93 | 1015.5 |
| 20260503070503 | 18 | 346 | 6.4 | 17.7 | 0.05 | 0.41 | 0.18 | 93 | 1015.5 |
| 20260503054518 | 21 | 237 | 0.0 | 6.4 | 0.05 | 0.36 | 0.13 | 94 | 1015.2 |
| 20260503053504 | 21 | 230 | 3.2 | 8.0 | 0.05 | 0.36 | 0.13 | 94 | 1015.5 |
| 20260503053019 | 21 | 236 | 1.6 | 6.4 | 0.05 | 0.36 | 0.13 | 94 | 1015.5 |
| 20260503052005 | 21 | 236 | 3.2 | 9.7 | 0.05 | 0.33 | 0.10 | 94 | 1015.6 |
| 20260503051524 | 21 | 229 | 4.8 | 9.7 | 0.05 | 0.33 | 0.10 | 94 | 1015.6 |
| 20260503051007 | 21 | 228 | 3.2 | 9.7 | 0.08 | 0.33 | 0.10 | 94 | 1015.6 |
| 20260503050504 | 21 | 225 | 3.2 | 6.4 | 0.08 | 0.33 | 0.10 | 94 | 1015.6 |
| 20260503050010 | 21 | 235 | 1.6 | 4.8 | 0.10 | 0.33 | 0.10 | 93 | 1015.6 |
| 20260503044525 | 21 | 239 | 3.2 | 8.0 | 0.08 | 0.30 | 0.08 | 94 | 1015.7 |
| 20260503044003 | 21 | 235 | 3.2 | 8.0 | 0.08 | 0.30 | 0.08 | 94 | 1015.6 |
| 20260503043021 | 21 | 244 | 1.6 | 9.7 | 0.08 | 0.30 | 0.08 | 94 | 1015.5 |
| 20260503042504 | 21 | 225 | 3.2 | 9.7 | 0.08 | 0.30 | 0.08 | 93 | 1015.6 |
| 20260503042008 | 21 | 217 | 4.8 | 9.7 | 0.05 | 0.28 | 0.05 | 93 | 1015.6 |
| 20260503041525 | 21 | 205 | 4.8 | 14.5 | 0.05 | 0.28 | 0.05 | 93 | 1015.6 |
| 20260503040504 | 21 | 238 | 4.8 | 9.7 | 0.03 | 0.25 | 0.03 | 92 | 1015.3 |
| 20260503040031 | 21 | 234 | 4.8 | 8.0 | 0.00 | 0.23 | 0.00 | 92 | 1015.2 |
| 20260503035505 | 21 | 229 | 3.2 | 8.0 | 0.00 | 0.23 | 0.23 | 92 | 1015.1 |
| 20260503034513 | 21 | 244 | 1.6 | 8.0 | 0.00 | 0.23 | 0.23 | 92 | 1014.6 |
| 20260503033015 | 21 | 226 | 4.8 | 8.0 | 0.00 | 0.23 | 0.23 | 92 | 1014.2 |
| 20260503032508 | 21 | 230 | 0.0 | 8.0 | 0.00 | 0.23 | 0.23 | 92 | 1014.1 |
| 20260503031512 | 21 | 223 | 3.2 | 9.7 | 0.00 | 0.23 | 0.23 | 91 | 1014.1 |
| 20260503031006 | 21 | 248 | 4.8 | 11.3 | 0.00 | 0.23 | 0.23 | 91 | 1014.1 |
| 20260503030027 | 21 | 208 | 4.8 | 12.9 | 0.00 | 0.23 | 0.23 | 91 | 1014.2 |
| 20260503025506 | 21 | 215 | 6.4 | 16.1 | 0.00 | 0.23 | 0.23 | 91 | 1014.3 |
| 20260503025007 | 21 | 185 | 6.4 | 16.1 | 0.00 | 0.23 | 0.23 | 91 | 1014.3 |
| 20260503023035 | 21 | 205 | 4.8 | 11.3 | 0.00 | 0.23 | 0.23 | 92 | 1014.1 |
| 20260503022009 | 21 | 236 | 4.8 | 9.7 | 0.00 | 0.23 | 0.23 | 92 | 1013.8 |
| 20260503021519 | 21 | 233 | 3.2 | 8.0 | 0.00 | 0.23 | 0.23 | 92 | 1013.6 |
| 20260503014515 | 21 | 236 | 3.2 | 12.9 | 0.00 | 0.23 | 0.23 | 91 | 1013.4 |
| 20260503014006 | 21 | 203 | 4.8 | 11.3 | 0.00 | 0.23 | 0.23 | 91 | 1013.5 |
| 20260503013510 | 21 | 237 | 6.4 | 11.3 | 0.00 | 0.23 | 0.23 | 92 | 1013.5 |
| 20260503013013 | 21 | 223 | 4.8 | 11.3 | 0.00 | 0.23 | 0.23 | 92 | 1013.2 |
| 20260503012007 | 21 | 213 | 3.2 | 12.9 | 0.00 | 0.23 | 0.23 | 92 | 1013.1 |
| 20260503011518 | 21 | 200 | 1.6 | 12.9 | 0.00 | 0.23 | 0.23 | 93 | 1013.2 |
| 20260503011007 | 21 | 190 | 6.4 | 12.9 | 0.00 | 0.23 | 0.23 | 93 | 1013.1 |
| 20260503010031 | 21 | 203 | 4.8 | 12.9 | 0.00 | 0.23 | 0.23 | 93 | 1013.0 |
| 20260503005012 | 21 | 205 | 4.8 | 12.9 | 0.00 | 0.23 | 0.23 | 93 | 1012.8 |
| 20260503003503 | 21 | 315 | 0.0 | 4.8 | 0.00 | 0.23 | 0.23 | 93 | 1011.6 |
| 20260503003022 | 21 | 315 | 0.0 | 8.0 | 0.00 | 0.23 | 0.23 | 93 | 1011.6 |
| 20260503002516 | 21 | 314 | 1.6 | 8.0 | 0.00 | 0.23 | 0.23 | 93 | 1011.8 |
| 20260503001518 | 21 | 254 | 0.0 | 8.0 | 0.03 | 0.23 | 0.23 | 93 | 1011.5 |
| 20260503001008 | 21 | 240 | 3.2 | 11.3 | 0.03 | 0.23 | 0.23 | 93 | 1012.0 |
| 20260503000024 | 21 | 213 | 4.8 | 14.5 | 0.05 | 0.23 | 0.23 | 93 | 1012.2 |
| 20260502234008 | 21 | 223 | 3.2 | 8.0 | 0.08 | 0.23 | 0.23 | 93 | 1011.8 |
| 20260502233509 | 21 | 201 | 3.2 | 8.0 | 0.10 | 0.23 | 0.23 | 93 | 1011.7 |
| 20260502233009 | 21 | 171 | 3.2 | 6.4 | 0.10 | 0.23 | 0.23 | 93 | 1011.3 |
| 20260502232007 | 21 | 217 | 0.0 | 12.9 | 0.08 | 0.20 | 0.20 | 92 | 1011.8 |
| 20260502231519 | 21 | 194 | 1.6 | 12.9 | 0.08 | 0.20 | 0.20 | 93 | 1011.6 |
| 20260502230022 | 21 | 200 | 3.2 | 6.4 | 0.05 | 0.18 | 0.18 | 93 | 1011.5 |
| 20260502225007 | 21 | 214 | 1.6 | 11.3 | 0.05 | 0.18 | 0.18 | 93 | 1011.9 |
| 20260502224522 | 21 | 213 | 1.6 | 9.7 | 0.03 | 0.15 | 0.15 | 92 | 1012.1 |
| 20260502224008 | 21 | 228 | 3.2 | 12.9 | 0.03 | 0.15 | 0.15 | 92 | 1012.2 |
| 20260502223505 | 21 | 198 | 8.0 | 12.9 | 0.00 | 0.13 | 0.13 | 92 | 1012.5 |
| 20260502223018 | 21 | 207 | 4.8 | 14.5 | 0.00 | 0.13 | 0.13 | 92 | 1012.4 |
| 20260502222510 | 21 | 205 | 6.4 | 17.7 | 0.00 | 0.13 | 0.13 | 92 | 1012.1 |
| 20260502222005 | 21 | 190 | 11.3 | 17.7 | 0.00 | 0.13 | 0.13 | 92 | 1012.0 |
| 20260502220013 | 21 | 180 | 1.6 | 14.5 | 0.00 | 0.13 | 0.13 | 92 | 1011.6 |
| 20260502214521 | 21 | 200 | 9.7 | 17.7 | 0.03 | 0.13 | 0.13 | 91 | 1012.4 |